Atmospheric History
12/06/2017 18:43  to  12/7/2017 18:43
Change End Date:
To complete the export process:
1) Select all of the data below
2) Copy the data to the clipboard
3) Open a word processor such as Notepad
4) Paste the data into the word processor
5) Save the file

Date/Time (MST), AirTemp, RH, Dewpoint ,AvgWindSpeed, GustWindSpeed, WindDirection, PrecipType, PrecipIntensity, PrecipAccumulation, PrecipRate
12/07/2017 18:41, 37, 50, 20 ,19, 24, W, None, None, ,  
12/07/2017 18:33, 37, 50, 20 ,18, 24, W, None, None, ,  
12/07/2017 18:31, 37, 50, 20 ,17, 24, W, None, None, ,  
12/07/2017 18:21, 37, 50, 20 ,17, 26, W, None, None, ,  
12/07/2017 18:18, 37, 50, 20 ,19, 26, W, None, None, ,  
12/07/2017 18:11, 36, 52, 20 ,17, 23, W, None, None, ,  
12/07/2017 18:03, 37, 52, 21 ,16, 22, W, None, None, ,  
12/07/2017 18:01, 36, 52, 21 ,17, 22, W, None, None, ,  
12/07/2017 17:51, 37, 51, 21 ,16, 22, W, None, None, ,  
12/07/2017 17:48, 37, 51, 21 ,14, 20, W, None, None, ,  
12/07/2017 17:41, 37, 51, 21 ,15, 23, W, None, None, ,  
12/07/2017 17:33, 37, 51, 21 ,16, 22, NW, None, None, ,  
12/07/2017 17:31, 37, 52, 21 ,16, 21, NW, None, None, ,  
12/07/2017 17:21, 37, 51, 21 ,13, 22, W, None, None, ,  
12/07/2017 17:18, 37, 51, 21 ,14, 22, NW, None, None, ,  
12/07/2017 17:11, 37, 52, 21 ,15, 22, W, None, None, ,  
12/07/2017 17:03, 37, 51, 21 ,16, 20, NW, None, None, ,  
12/07/2017 17:01, 37, 52, 21 ,14, 20, W, None, None, ,  
12/07/2017 16:51, 37, 53, 22 ,14, 21, W, None, None, ,  
12/07/2017 16:48, 37, 53, 22 ,13, 18, W, None, None, ,  
12/07/2017 16:41, 37, 52, 22 ,12, 19, NW, None, None, ,  
12/07/2017 16:33, 37, 53, 22 ,11, 17, W, None, None, ,  
12/07/2017 16:31, 37, 53, 22 ,11, 19, W, None, None, ,  
12/07/2017 16:21, 38, 52, 22 ,13, 19, W, None, None, ,  
12/07/2017 16:18, 38, 52, 22 ,13, 22, W, None, None, ,  
12/07/2017 16:10, 38, 52, 22 ,15, 22, W, None, None, ,  
12/07/2017 16:03, 38, 53, 22 ,12, 19, W, None, None, ,  
12/07/2017 16:00, 38, 53, 22 ,12, 21, W, None, None, ,  
12/07/2017 15:50, 38, 53, 22 ,12, 19, NW, None, None, ,  
12/07/2017 15:48, 38, 53, 22 ,16, 20, NW, None, None, ,  
12/07/2017 15:40, 39, 51, 22 ,14, 22, W, None, None, ,  
12/07/2017 15:33, 39, 51, 22 ,14, 21, W, None, None, ,  
12/07/2017 15:30, 39, 52, 23 ,16, 22, W, None, None, ,  
12/07/2017 15:20, 39, 52, 23 ,15, 20, W, None, None, ,  
12/07/2017 15:18, 39, 52, 23 ,14, 19, W, None, None, ,  
12/07/2017 15:10, 40, 51, 23 ,14, 22, W, None, None, ,  
12/07/2017 15:03, 40, 51, 23 ,15, 21, W, None, None, ,  
12/07/2017 15:00, 40, 52, 24 ,14, 21, W, None, None, ,  
12/07/2017 14:50, 39, 54, 24 ,14, 19, W, None, None, ,  
12/07/2017 14:48, 39, 54, 24 ,13, 19, W, None, None, ,  
12/07/2017 14:40, 40, 54, 24 ,14, 24, W, None, None, ,  
12/07/2017 14:33, 40, 55, 25 ,12, 24, W, None, None, ,  
12/07/2017 14:30, 39, 55, 25 ,14, 25, W, None, None, ,  
12/07/2017 14:20, 40, 54, 24 ,15, 24, W, None, None, ,  
12/07/2017 14:18, 40, 55, 25 ,14, 23, W, None, None, ,  
12/07/2017 14:10, 40, 55, 25 ,14, 24, W, None, None, ,  
12/07/2017 14:03, 40, 54, 25 ,16, 21, W, None, None, ,  
12/07/2017 14:00, 40, 54, 24 ,15, 21, W, None, None, ,  
12/07/2017 13:50, 39, 55, 25 ,15, 24, NW, None, None, ,  
12/07/2017 13:48, 39, 56, 25 ,15, 25, W, None, None, ,  
12/07/2017 13:40, 38, 56, 24 ,18, 25, W, None, None, ,  
12/07/2017 13:33, 37, 59, 24 ,17, 27, W, None, None, ,  
12/07/2017 13:30, 37, 58, 24 ,14, 27, W, None, None, ,  
12/07/2017 13:20, 38, 58, 24 ,14, 24, W, None, None, ,  
12/07/2017 13:18, 37, 59, 24 ,12, 24, W, None, None, ,  
12/07/2017 13:10, 37, 59, 24 ,18, 24, W, None, None, ,  
12/07/2017 13:03, 37, 61, 24 ,15, 21, W, None, None, ,  
12/07/2017 13:00, 37, 60, 24 ,17, 23, W, None, None, ,  
12/07/2017 12:50, 35, 63, 24 ,14, 22, NW, None, None, ,  
12/07/2017 12:48, 35, 63, 24 ,15, 22, W, None, None, ,  
12/07/2017 12:40, 34, 64, 24 ,14, 21, W, None, None, ,  
12/07/2017 12:33, 34, 65, 24 ,14, 19, W, None, None, ,  
12/07/2017 12:30, 34, 65, 23 ,14, 19, W, None, None, ,  
12/07/2017 12:20, 34, 64, 23 ,16, 22, W, None, None, ,  
12/07/2017 12:18, 33, 65, 23 ,14, 24, W, None, None, ,  
12/07/2017 12:09, 33, 65, 23 ,17, 23, W, None, None, ,  
12/07/2017 12:03, 33, 65, 22 ,16, 21, W, None, None, ,  
12/07/2017 11:59, 33, 66, 22 ,15, 19, NW, None, None, ,  
12/07/2017 11:49, 33, 64, 22 ,14, 23, NW, None, None, ,  
12/07/2017 11:48, 32, 64, 22 ,15, 23, W, None, None, ,  
12/07/2017 11:39, 33, 64, 22 ,14, 21, NW, None, None, ,  
12/07/2017 11:33, 33, 64, 22 ,15, 19, W, None, None, ,  
12/07/2017 11:29, 32, 65, 22 ,13, 21, NW, None, None, ,  
12/07/2017 11:19, 32, 64, 21 ,14, 20, NW, None, None, ,  
12/07/2017 11:18, 32, 65, 22 ,14, 20, NW, None, None, ,  
12/07/2017 11:09, 32, 65, 22 ,13, 20, NW, None, None, ,  
12/07/2017 11:03, 31, 65, 21 ,14, 21, NW, None, None, ,  
12/07/2017 10:59, 31, 66, 21 ,16, 21, NW, None, None, ,  
12/07/2017 10:49, 31, 67, 21 ,15, 19, NW, None, None, ,  
12/07/2017 10:48, 30, 67, 21 ,14, 19, NW, None, None, ,  
12/07/2017 10:39, 30, 66, 20 ,15, 22, NW, None, None, ,  
12/07/2017 10:33, 30, 67, 20 ,14, 22, NW, None, None, ,  
12/07/2017 10:29, 30, 67, 20 ,16, 22, W, None, None, ,  
12/07/2017 10:19, 29, 68, 20 ,15, 23, W, None, None, ,  
12/07/2017 10:18, 29, 68, 20 ,15, 23, W, None, None, ,  
12/07/2017 10:09, 29, 68, 19 ,15, 20, W, None, None, ,  
12/07/2017 10:03, 28, 68, 19 ,12, 20, W, None, None, ,  
12/07/2017 09:59, 28, 68, 19 ,14, 18, W, None, None, ,  
12/07/2017 09:49, 28, 68, 18 ,12, 18, W, None, None, ,  
12/07/2017 09:48, 28, 68, 18 ,12, 18, W, None, None, ,  
12/07/2017 09:39, 27, 68, 18 ,12, 16, W, None, None, ,  
12/07/2017 09:33, 27, 68, 18 ,12, 17, W, None, None, ,  
12/07/2017 09:29, 27, 68, 18 ,11, 17, W, None, None, ,  
12/07/2017 09:18, 26, 69, 18 ,11, 16, W, None, None, ,  
12/07/2017 09:18, 26, 69, 18 ,10, 16, W, None, None, ,  
12/07/2017 09:08, 26, 68, 17 ,10, 17, W, None, None, ,  
12/07/2017 09:03, 26, 68, 17 ,13, 17, W, None, None, ,  
12/07/2017 08:58, 26, 68, 17 ,12, 16, W, None, None, ,  
12/07/2017 08:48, 26, 69, 17 ,11, 16, W, None, None, ,  
12/07/2017 08:48, 26, 69, 17 ,11, 16, W, None, None, ,  
12/07/2017 08:38, 26, 68, 17 ,10, 14, W, None, None, ,  
12/07/2017 08:33, 26, 69, 17 ,10, 14, W, None, None, ,  
12/07/2017 08:28, 26, 69, 17 ,9, 12, W, None, None, ,  
12/07/2017 08:18, 25, 69, 17 ,7, 12, W, None, None, ,  
12/07/2017 08:18, 25, 69, 17 ,7, 12, W, None, None, ,  
12/07/2017 08:08, 24, 71, 16 ,7, 12, W, None, None, ,  
12/07/2017 08:03, 24, 71, 16 ,9, 12, W, None, None, ,  
12/07/2017 07:58, 24, 72, 16 ,9, 11, W, None, None, ,  
12/07/2017 07:48, 23, 73, 16 ,9, 12, SW, None, None, ,  
12/07/2017 07:48, 23, 73, 16 ,9, 12, SW, None, None, ,  
12/07/2017 07:38, 23, 74, 16 ,8, 12, W, None, None, ,  
12/07/2017 07:33, 22, 75, 16 ,8, 11, SW, None, None, ,  
12/07/2017 07:28, 22, 74, 15 ,7, 11, SW, None, None, ,  
12/07/2017 07:18, 23, 73, 15 ,7, 12, W, None, None, ,  
12/07/2017 07:18, 23, 73, 15 ,7, 12, SW, None, None, ,  
12/07/2017 07:08, 23, 73, 15 ,7, 10, SW, None, None, ,  
12/07/2017 07:03, 22, 73, 15 ,6, 12, SW, None, None, ,  
12/07/2017 06:58, 22, 73, 15 ,7, 12, SW, None, None, ,  
12/07/2017 06:48, 22, 76, 15 ,8, 10, SW, None, None, ,  
12/07/2017 06:48, 22, 76, 15 ,8, 10, SW, None, None, ,  
12/07/2017 06:38, 21, 77, 15 ,6, 8, SW, None, None, ,  
12/07/2017 06:33, 21, 77, 15 ,6, 10, SW, None, None, ,  
12/07/2017 06:27, 21, 77, 15 ,6, 10, SW, None, None, ,  
12/07/2017 06:18, 20, 79, 15 ,6, 9, SW, None, None, ,  
12/07/2017 06:17, 20, 79, 15 ,6, 9, SW, None, None, ,  
12/07/2017 06:07, 20, 80, 15 ,6, 9, SW, None, None, ,  
12/07/2017 06:03, 21, 79, 15 ,6, 9, SW, None, None, ,  
12/07/2017 05:57, 20, 80, 15 ,6, 9, SW, None, None, ,  
12/07/2017 05:48, 20, 80, 15 ,5, 7, SW, None, None, ,  
12/07/2017 05:47, 20, 80, 15 ,5, 7, SW, None, None, ,  
12/07/2017 05:37, 21, 78, 16 ,6, 9, SW, None, None, ,  
12/07/2017 05:33, 21, 79, 16 ,6, 9, SW, None, None, ,  
12/07/2017 05:27, 21, 80, 16 ,6, 9, SW, None, None, ,  
12/07/2017 05:18, 20, 84, 16 ,6, 9, SW, None, None, ,  
12/07/2017 05:17, 20, 84, 16 ,6, 9, SW, None, None, ,  
12/07/2017 05:07, 20, 84, 16 ,7, 9, SW, None, None, ,  
12/07/2017 05:03, 20, 84, 16 ,6, 9, SW, None, None, ,  
12/07/2017 04:57, 19, 86, 16 ,6, 7, SW, None, None, ,  
12/07/2017 04:48, 20, 85, 16 ,6, 7, SW, None, None, ,  
12/07/2017 04:47, 20, 86, 16 ,6, 7, SW, None, None, ,  
12/07/2017 04:37, 20, 83, 16 ,6, 7, SW, None, None, ,  
12/07/2017 04:33, 21, 82, 17 ,6, 7, W, None, None, ,  
12/07/2017 04:27, 20, 85, 17 ,6, 8, SW, None, None, ,  
12/07/2017 04:18, 20, 88, 17 ,6, 7, SW, None, None, ,  
12/07/2017 04:17, 20, 88, 17 ,6, 7, SW, None, None, ,  
12/07/2017 04:07, 20, 90, 17 ,6, 7, W, None, None, ,  
12/07/2017 04:03, 20, 90, 17 ,6, 8, W, None, None, ,  
12/07/2017 03:57, 20, 90, 17 ,6, 8, SW, None, None, ,  
12/07/2017 03:48, 19, 91, 17 ,6, 7, SW, None, None, ,  
12/07/2017 03:47, 19, 92, 17 ,6, 9, SW, None, None, ,  
12/07/2017 03:37, 18, 94, 17 ,6, 7, SW, None, None, ,  
12/07/2017 03:33, 18, 94, 17 ,6, 8, SW, None, None, ,  
12/07/2017 03:27, 18, 95, 17 ,6, 8, SW, None, None, ,  
12/07/2017 03:18, 18, 96, 17 ,4, 7, SW, None, None, ,  
12/07/2017 03:17, 18, 96, 17 ,4, 7, SW, None, None, ,  
12/07/2017 03:07, 17, 97, 17 ,4, 6, SW, None, None, ,  
12/07/2017 03:03, 17, 96, 16 ,4, 6, SW, None, None, ,  
12/07/2017 02:57, 17, 96, 17 ,5, 6, SW, None, None, ,  
12/07/2017 02:48, 17, 95, 16 ,4, 7, SW, None, None, ,  
12/07/2017 02:47, 17, 95, 16 ,4, 7, SW, None, None, ,  
12/07/2017 02:36, 17, 98, 16 ,5, 6, SW, None, None, ,  
12/07/2017 02:33, 17, 99, 16 ,4, 6, SW, None, None, ,  
12/07/2017 02:26, 16, 99, 16 ,4, 6, SW, None, None, ,  
12/07/2017 02:18, 16, 97, 16 ,4, 6, SW, None, None, ,  
12/07/2017 02:16, 17, 96, 16 ,5, 7, SW, None, None, ,  
12/07/2017 02:06, 17, 96, 16 ,5, 6, SW, None, None, ,  
12/07/2017 02:03, 17, 96, 16 ,5, 6, SW, None, None, ,  
12/07/2017 01:56, 18, 96, 17 ,5, 6, SW, None, None, ,  
12/07/2017 01:48, 17, 96, 17 ,6, 6, SW, None, None, ,  
12/07/2017 01:46, 18, 96, 17 ,5, 6, SW, None, None, ,  
12/07/2017 01:36, 17, 99, 17 ,5, 6, SW, None, None, ,  
12/07/2017 01:33, 16, 100, 16 ,5, 6, SW, None, None, ,  
12/07/2017 01:26, 16, 99, 15 ,4, 6, SW, None, None, ,  
12/07/2017 01:18, 16, 99, 16 ,6, 6, SW, None, None, ,  
12/07/2017 01:16, 16, 99, 16 ,6, 6, SW, None, None, ,  
12/07/2017 01:06, 17, 94, 15 ,6, 7, SW, None, None, ,  
12/07/2017 01:03, 17, 96, 17 ,6, 7, SW, None, None, ,  
12/07/2017 00:56, 17, 98, 17 ,6, 7, SW, None, None, ,  
12/07/2017 00:48, 16, 99, 16 ,6, 7, SW, None, None, ,  
12/07/2017 00:46, 16, 99, 16 ,6, 7, SW, None, None, ,  
12/07/2017 00:36, 16, 99, 16 ,6, 7, SW, None, None, ,  
12/07/2017 00:33, 16, 99, 15 ,6, 7, SW, None, None, ,  
12/07/2017 00:26, 16, 100, 17 ,5, 6, SW, None, None, ,  
12/07/2017 00:18, 15, 100, 15 ,3, 4, SW, None, None, ,  
12/07/2017 00:16, 15, 99, 15 ,3, 4, SW, None, None, ,  
12/07/2017 00:06, 16, 100, 17 ,4, 6, SW, None, None, ,  
12/07/2017 00:03, 16, 100, 17 ,4, 6, SW, None, None, ,  
12/06/2017 23:56, 15, 100, 15 ,5, 6, SW, None, None, ,  
12/06/2017 23:48, 16, , 16 ,4, 6, SW, None, None, ,  
12/06/2017 23:46, 16, , 16 ,5, 6, SW, None, None, ,  
12/06/2017 23:36, 15, , 16 ,4, 6, SW, None, None, ,  
12/06/2017 23:33, 16, , 17 ,4, 6, SW, None, None, ,  
12/06/2017 23:26, 15, , 16 ,4, 6, SW, None, None, ,  
12/06/2017 23:18, 16, , 16 ,5, 7, SW, None, None, ,  
12/06/2017 23:15, 16, , 17 ,5, 7, SW, None, None, ,  
12/06/2017 23:05, 16, 100, 16 ,5, 6, SW, None, None, ,  
12/06/2017 23:03, 16, 100, 16 ,4, 6, SW, None, None, ,  
12/06/2017 22:55, 16, 99, 16 ,4, 6, SW, None, None, ,  
12/06/2017 22:48, 16, 99, 16 ,5, 6, SW, None, None, ,  
12/06/2017 22:45, 16, 99, 16 ,6, 6, SW, None, None, ,  
12/06/2017 22:35, 16, 99, 16 ,5, 6, SW, None, None, ,  
12/06/2017 22:33, 16, 98, 16 ,4, 6, SW, None, None, ,  
12/06/2017 22:25, 16, 99, 16 ,4, 6, SW, None, None, ,  
12/06/2017 22:18, 16, 99, 16 ,4, 6, SW, None, None, ,  
12/06/2017 22:15, 16, 99, 16 ,4, 6, SW, None, None, ,  
12/06/2017 22:05, 16, 98, 16 ,3, 5, SW, None, None, ,  
12/06/2017 22:03, 16, 99, 16 ,3, 5, SW, None, None, ,  
12/06/2017 21:55, 16, 98, 16 ,4, 5, SW, None, None, ,  
12/06/2017 21:48, 16, 97, 16 ,3, 5, SW, None, None, ,  
12/06/2017 21:45, 17, 97, 16 ,3, 5, SW, None, None, ,  
12/06/2017 21:35, 17, 97, 16 ,3, 4, SW, None, None, ,  
12/06/2017 21:33, 17, 96, 16 ,3, 4, SW, None, None, ,  
12/06/2017 21:25, 17, 95, 16 ,2, 4, S, None, None, ,  
12/06/2017 21:18, 17, 95, 16 ,3, 4, S, None, None, ,  
12/06/2017 21:15, 17, 95, 16 ,3, 6, S, None, None, ,  
12/06/2017 21:05, 17, 94, 16 ,3, 6, S, None, None, ,  
12/06/2017 21:03, 18, 93, 16 ,2, 6, SW, None, None, ,  
12/06/2017 20:55, 18, 94, 16 ,3, 6, SW, None, None, ,  
12/06/2017 20:48, 17, 95, 16 ,4, 6, SW, None, None, ,  
12/06/2017 20:45, 17, 96, 16 ,4, 6, SW, None, None, ,  
12/06/2017 20:35, 17, 97, 16 ,4, 6, SW, None, None, ,  
12/06/2017 20:33, 17, 97, 16 ,4, 6, SW, None, None, ,  
12/06/2017 20:25, 17, 95, 16 ,4, 6, SW, None, None, ,  
12/06/2017 20:18, 17, 94, 16 ,4, 6, SW, None, None, ,  
12/06/2017 20:15, 17, 94, 16 ,4, 6, SW, None, None, ,  
12/06/2017 20:05, 18, 93, 16 ,2, 6, S, None, None, ,  
12/06/2017 20:03, 17, 93, 16 ,2, 6, SW, None, None, ,  
12/06/2017 19:55, 17, 92, 16 ,4, 6, SW, None, None, ,  
12/06/2017 19:48, 17, 92, 16 ,3, 4, SW, None, None, ,  
12/06/2017 19:45, 17, 92, 15 ,3, 4, SW, None, None, ,  
12/06/2017 19:35, 17, 92, 15 ,2, 3, SW, None, None, ,  
12/06/2017 19:33, 17, 91, 15 ,2, 3, SW, None, None, ,  
12/06/2017 19:25, 17, 91, 15 ,2, 4, SW, None, None, ,  
12/06/2017 19:18, 17, 91, 15 ,2, 3, SW, None, None, ,  
12/06/2017 19:15, 17, 90, 15 ,2, 4, SW, None, None, ,  
12/06/2017 19:05, 18, 90, 15 ,2, 4, SW, None, None, ,  
12/06/2017 19:03, 18, 89, 15 ,3, 4, W, None, None, ,  
12/06/2017 18:55, 18, 89, 15 ,2, 4, SW, None, None, ,  
12/06/2017 18:48, 17, 90, 15 ,2, 3, W, None, None, ,  
12/06/2017 18:45, 17, 90, 15 ,2, 3, W, None, None, ,  
Change End Date:

Copyright © 1998-2015 Vaisala, Inc.
All Rights Reserved
Send comments about the data to:
SCAN Web ® is a registered trademark of Vaisala, Inc.
SCAN Web Version 6.0